This demonstration page uses our WeatherBlox Daily Observations layout. Learn more.

Left ArrowRight Arrow

39.51506, -84.39828

Hourly Observations for June 1, 2016

Temp ( °F °C ) Dew Point ( °F °C ) Humidity (%) Winds ( mph kmh ) Pressure ( in mb ) Visibility ( mi km ) Precip ( " mm )
12:15 am 00:15 Mostly Cloudy 69 20.8 62 16.5 77 77 N N/A 29.97 1015 10 16 N/A
12:35 am 00:35 Partly Cloudy 69 20.8 61 16.2 75 75 N N/A 29.97 1015 10 16 N/A
12:55 am 00:55 Mostly Cloudy 69 20.8 62 16.6 77 77 N N/A 29.97 1015 10 16 N/A
1:15 am 01:15 Partly Cloudy 69 20.8 62 16.5 77 77 N N/A 29.97 1015 10 16 N/A
1:35 am 01:35 Clear 69 20.8 62 16.8 78 78 N N/A 29.97 1015 10 16 N/A
1:55 am 01:55 Clear 67 19.5 60 15.6 78 78 N N/A 29.97 1015 10 16 N/A
2:15 am 02:15 Clear 67 19.5 60 15.8 79 79 N N/A 29.97 1015 10 16 N/A
2:35 am 02:35 Clear 67 19.5 60 15.7 79 79 NNW 3 6 29.94 1014 10 16 N/A
2:55 am 02:55 Partly Cloudy 68 19.8 60 15.6 77 77 N N/A 29.97 1015 10 16 N/A
3:15 am 03:15 Mostly Cloudy 69 20.8 62 16.4 76 76 N N/A 29.94 1014 10 16 N/A
3:35 am 03:35 Mostly Cloudy 69 20.8 61 16.2 75 75 NNW 3 6 29.97 1015 10 16 N/A
3:55 am 03:55 Partly Cloudy 69 20.8 62 16.4 76 76 NNW 3 6 29.97 1015 10 16 N/A
4:15 am 04:15 Clear 69 20.8 61 16.3 76 76 N 5 7 29.97 1015 10 16 N/A
4:35 am 04:35 Clear 69 20.8 62 16.5 77 77 N 5 7 29.97 1015 10 16 N/A
4:55 am 04:55 Clear 67 19.5 60 15.3 77 77 N N/A 29.97 1015 10 16 N/A
5:15 am 05:15 Clear 68 19.9 60 15.6 76 76 N N/A 29.97 1015 10 16 N/A
5:35 am 05:35 Clear 64 18 58 14.2 79 79 N N/A 29.97 1015 10 16 N/A
5:55 am 05:55 Clear 64 17.9 58 14.3 80 80 N 3 6 29.97 1015 10 16 N/A
6:15 am 06:15 Sunny 63 17.2 57 13.8 81 81 N 3 6 29.97 1015 10 16 N/A
6:35 am 06:35 Sunny 63 17.1 56 13.6 80 80 N N/A 29.97 1015 10 16 N/A
6:55 am 06:55 Sunny 64 18 58 14.5 80 80 N N/A 29.97 1015 10 16 N/A
7:15 am 07:15 Sunny 67 19.4 60 15.6 79 79 N N/A 29.97 1015 10 16 N/A
7:35 am 07:35 Sunny 69 20.8 62 16.5 77 77 N N/A 29.97 1015 10 16 N/A
7:55 am 07:55 Sunny 71 21.5 60 15.7 70 70 N N/A 29.97 1015 10 16 N/A
8:15 am 08:15 Sunny 74 23.6 62 16.7 65 65 N N/A 29.97 1015 10 16 N/A
8:35 am 08:35 Sunny 74 23.6 61 16.2 63 63 NE 3 6 29.97 1015 10 16 N/A
8:55 am 08:55 Sunny 74 23.6 61 16.1 63 63 N N/A 29.97 1015 10 16 N/A
9:15 am 09:15 Sunny 76 24.3 60 15.8 59 59 N N/A 29.97 1015 10 16 N/A
9:35 am 09:35 Sunny 77 25.1 60 15.7 56 56 N N/A 29.97 1015 10 16 N/A
9:55 am 09:55 Sunny 80 26.5 61 16 53 53 N N/A 29.97 1015 10 16 N/A
10:15 am 10:15 Sunny 81 27.2 58 14.4 45 45 N N/A 29.97 1015 10 16 N/A
10:35 am 10:35 Sunny 82 27.9 56 13.3 41 41 SSE 5 7 29.94 1014 10 16 N/A
10:55 am 10:55 Sunny 83 28.6 54 12.1 36 36 SE 8 13 29.94 1014 10 16 N/A
11:15 am 11:15 Sunny 85 29.2 55 12.5 36 36 S 8 13 29.94 1014 10 16 N/A
11:35 am 11:35 Sunny 85 29.3 53 11.6 33 33 S 6 9 29.94 1014 10 16 N/A
11:55 am 11:55 Sunny 87 30.7 53 11.5 31 31 SSW 6 9 29.94 1014 10 16 N/A
12:15 pm 12:15 Sunny 88 31.2 50 10.1 27 27 SSW 6 9 29.94 1014 10 16 N/A
12:35 pm 12:35 Sunny 90 32.1 53 11.7 29 29 SE 7 11 29.94 1014 10 16 N/A
12:55 pm 12:55 Sunny 90 32.1 52 11.3 28 28 SSW 7 11 29.91 1013 10 16 N/A
1:15 pm 13:15 Sunny 90 32.1 52 11.3 28 28 SSW 7 11 29.91 1013 10 16 N/A
1:35 pm 13:35 Sunny 90 32.1 52 11.3 28 28 S 6 9 29.91 1013 10 16 N/A
1:55 pm 13:55 Mostly Cloudy 90 32.1 52 11 27 27 SSW 8 13 29.91 1013 10 16 N/A
2:15 pm 14:15 Partly Cloudy 90 32.1 51 10.3 26 26 SSE 8 13 29.91 1013 10 16 N/A
2:35 pm 14:35 Sunny 90 32.1 52 11.2 28 28 SSW 9 15 29.91 1013 10 16 N/A
2:55 pm 14:55 Partly Cloudy 90 32.1 54 12.1 29 29 SSW 12 19 29.91 1013 10 16 N/A
3:15 pm 15:15 Sunny 90 32.1 53 11.6 28 28 S 8 13 29.91 1013 10 16 N/A
3:35 pm 15:35 Sunny 90 32.1 53 11.5 28 28 SW 7 11 29.88 1012 10 16 N/A
3:55 pm 15:55 Sunny 90 32.1 55 12.5 30 30 SSW 8 13 29.88 1012 10 16 N/A
4:15 pm 16:15 Sunny 90 32.1 55 12.7 31 31 SSW 6 9 29.88 1012 10 16 N/A
4:35 pm 16:35 Sunny 88 31.3 56 13.1 33 33 S 9 15 29.88 1012 10 16 N/A
4:55 pm 16:55 Partly Cloudy 87 30.7 56 13.3 34 34 S 5 7 29.88 1012 10 16 N/A
5:15 pm 17:15 Partly Cloudy 85 29.6 56 13.4 37 37 SW 7 11 29.88 1012 10 16 N/A
5:35 pm 17:35 Partly Cloudy 88 30.9 58 14.6 37 37 SW 6 9 29.88 1012 10 16 N/A
5:55 pm 17:55 Sunny 87 30.7 57 13.9 36 36 W 6 9 29.88 1012 10 16 N/A
6:15 pm 18:15 Sunny 90 32.1 58 14.4 34 34 WSW 8 13 29.88 1012 10 16 N/A
6:35 pm 18:35 Partly Cloudy 82 28 57 13.8 42 42 WNW 12 19 29.88 1012 10 16 N/A
6:55 pm 18:55 Sunny 77 25.1 59 15.1 54 54 NW 17 28 29.91 1013 10 16 N/A
7:15 pm 19:15 Sunny 77 25.1 61 16.2 58 58 NW 10 17 29.91 1013 10 16 N/A
7:35 pm 19:35 Sunny 74 23.6 59 15.2 59 59 NW 7 11 29.94 1014 10 16 N/A
7:55 pm 19:55 Sunny 83 28.5 49 9.3 30 30 SSE 5 7 29.88 1012 10 16 N/A
8:15 pm 20:15 Mostly Cloudy with Light Rain 74 23.6 62 16.8 66 66 W 5 7 29.94 1014 10 16 N/A
8:35 pm 20:35 Cloudy with Light Rain 72 22 63 17.4 75 75 N N/A 29.94 1014 10 16 N/A
8:55 pm 20:55 Partly Cloudy 71 21.4 63 17.4 78 78 N N/A 29.94 1014 10 16 N/A
9:15 pm 21:15 Clear 69 20.8 63 17 79 79 ENE 3 6 29.94 1014 10 16 N/A
9:35 pm 21:35 Partly Cloudy 70 21.1 64 17.5 80 80 N N/A 29.94 1014 10 16 N/A
9:55 pm 21:55 Partly Cloudy 69 20.8 63 17.3 80 80 NW 3 6 29.97 1015 10 16 N/A
10:15 pm 22:15 Clear 69 20.8 64 17.5 82 82 N N/A 29.97 1015 10 16 N/A
10:35 pm 22:35 Clear 69 20.8 64 17.5 82 82 N N/A 29.97 1015 10 16 N/A
10:55 pm 22:55 Clear 69 20.8 64 17.5 82 82 N N/A 29.97 1015 10 16 N/A
11:15 pm 23:15 Clear 69 20.8 64 17.5 82 82 N N/A 29.97 1015 10 16 N/A
11:55 pm 23:55 Hazy 69 20.8 64 17.7 83 83 N N/A 29.97 1015 5 8 N/A

Powered by AerisWeather